Location: Unspecified
(41.1850°N, 73.2650°W)
Time: 23:23:55
(UTC+00:00)

Cosmos 1745 Rocket - Pass Details

Date: 14 December 2025
Orbit: 951 x 998 km, 83.0° (Epoch: 14 January)

Event Time Altitude Azimuth Distance (km) Brightness Sun altitude
Rises 23:03:58 0° 359° (N) 3,653 6.9 -17.9°
Reaches altitude 10° 23:06:40 10° 7° (N) 2,697 6.1 -18.4°
Maximum altitude 23:12:25 40° 76° (ENE) 1,376 4.3 -19.5°
Drops below altitude 10° 23:18:06 10° 145° (SE) 2,669 6.1 -20.5°
Sets 23:20:44 0° 152° (SSE) 3,610 6.8 -21.0°
